STARLINK-32767, 62601

Orbit data source: Space-Track

STARLINK-32767, 62601 is a payload satellite owned by SpaceX/Seattle (US) in LEO that was launched on Mon, 13 Jan 2025 UTC via an FALCON 9 launch vehicle from the Air Force Eastern Test Range (AFETR). Payloads include a variety of satellites, spacecraft, and rockets equipped with specific instruments for various scientific and technological missions. These include communications satellites like Starlink; space stations such as the ISS; scientific satellites like the Hubble; Earth observation satellites from companies like Planet Labs, Umbra, and HawkEye 360; GPS; miniature CubeSats for education and research; and military/defense satellites.

Loading next visibility...
STARLINK-32767 details
Identifier
62601, 2025-008Q
Orbit
LEO
Last TLE update8 hours ago
Origin
Flag of USSpaceX/Seattle (US)
ManufacturerSpaceX/Seattle
MissionOperational spacecraft
Bus & MotorSTARLINK V2M, Unknown motor
Mass730 kg wet, ~700 kg dry
Launch date (UTC)
2025-01-13 (3 weeks ago)
Launch vehicle
FALCON 9
Launch site
Air Force Eastern Test Range (AFETR)
Object type
Payload
Rocket body
Debris
Shape & HBRUnknown
Radar Cross SectionLarge (>1 m²)

Expand to show TLE details & history

TLE from 8 hours ago
0 STARLINK-32767
1 62601U 25008Q   25035.83335648  .00036636  00000-0  62779-3 0  9993
2 62601  43.0002   8.0032 0001536 262.7978 347.1017 15.50560561  4736
Epoch: 2025-02-04T20:00Z
Definitive object data (Epoch: 2025-02-04T20:00:01.999Z)
Latitude-39.99385°
Longitude176.22101°
Altitude426.099 km
Speed7.657 km/s
True Right ascension16h 45m 50s
True Declination-39° 48' 59"
Sunlit
Object was in daylight at TLE epoch
Visualization TLE readout
Latitude-42.57771°
Longitude-147.6266°
Altitude427.099 km
Speed7.656 km/s
Apparent Right ascension18h 32m 10s
Apparent Declination-41° 30' 50"
Sunlit
Object is in daylight
Visualization observer readout
Local Sidereal Time05:52:56
Azimuth254.696° W
Elevation-82.401°
Doppler factor1
Orbital elements
Apogee altitude418.097 km
Perigee altitude416.009 km
Semi-major axis6,795.19 km
Eccentricity0.0001536
Inclination43.0002°
RAAN8.0032°
Arg. of periapsis262.7978°
True anomaly347.09777°
Mean anomaly347.1017°
Eccentric anomaly347.09974°
Mean motion3.87472 °/min
BSTAR0.00062779
Orbital period92.91 mins
Loading maneuver chart data...
Loading historical data...
Loading historical data...
Loading historical data...
Loading historical data...
Loading historical data...
Loading historical data...
Loading historical data...

STARLINK-32767 Visibility forecast

Observer location: undefined°, undefined

Span
Click to sort rows by Start time (UTC) header in descending order
Start Az.
Max El. time (UTC)
Max El. Az.
Max El.
End time (UTC)
End Az.
6 mins2025-02-05 04:33:11.396Z288.001° WNW2025-02-05 04:36:11.396Z9.312° NNE36.45°2025-02-05 04:39:11.396Z78.175° E
4 mins2025-02-05 06:12:11.396Z284.761° WNW2025-02-05 06:13:11.396Z274.653° WNW41.628°2025-02-05 06:16:11.396Z113.171° SE
4 mins2025-02-06 02:07:11.396Z249.136° W2025-02-06 02:08:11.396Z246.043° WSW41.621°2025-02-06 02:11:11.396Z72.282° E
5 mins2025-02-06 03:44:11.396Z290.257° WNW2025-02-06 03:46:11.396Z354.351° N36.355°2025-02-06 03:49:11.396Z72.984° E
|